This demonstration page uses our WeatherBlox Daily Observations layout. Learn more.

Hourly Observations for June 7, 2020

Temp ( °F °C ) Dew Point ( °F °C ) Humidity (%) Winds ( mph kmh ) Pressure ( in mb ) Visibility ( mi km ) Precip ( " mm )
12:15 am 00:15 Clear 72 22 54 12 53 53 Calm 29.87 1011 10 16.0934 0 0
12:35 am 00:35 Mostly Cloudy 70 21 55 13 60 60 NNW 5 7 29.88 1012 10 16.0934 0 0
12:55 am 00:55 Cloudy 72 22 54 12 53 53 N 6 9 29.88 1012 10 16.0934 0 0
1:15 am 01:15 Cloudy 72 22 54 12 53 53 N 5 7 29.88 1012 10 16.0934 0 0
1:35 am 01:35 Mostly Cloudy 70 21 54 12 57 57 NNW 3 6 29.89 1012 10 16.0934 0 0
1:55 am 01:55 Mostly Cloudy 73 23 52 11 47 47 N 8 13 29.89 1012 10 16.0934 0 0
2:15 am 02:15 Cloudy 70 21 55 13 60 60 NNW 13 20 29.92 1013 10 16.0934 0 0
2:35 am 02:35 Mostly Cloudy 68 20 55 13 64 64 NNW 9 15 29.92 1013 10 16.0934 0 0
2:55 am 02:55 Mostly Cloudy 66 19 57 14 73 73 N 9 15 29.92 1013 10 16.0934 0 0
3:15 am 03:15 Partly Cloudy 64 18 59 15 83 83 Calm 29.92 1013 10 16.0934 0 0
3:35 am 03:35 Clear 66 19 55 13 68 68 Calm 29.92 1013 10 16.0934 0 0
3:55 am 03:55 Clear 64 18 55 13 73 73 NNW 7 11 29.92 1013 10 16.0934 0 0
4:15 am 04:15 Clear 64 18 55 13 73 73 NNW 5 7 29.92 1013 10 16.0934 0 0
4:35 am 04:35 Clear 63 17 55 13 77 77 Calm 29.93 1013 10 16.0934 0 0
4:55 am 04:55 Clear 63 17 55 13 77 77 Calm 29.94 1014 10 16.0934 0 0
5:15 am 05:15 Clear 61 16 55 13 83 83 Calm 29.95 1014 10 16.0934 0 0
5:35 am 05:35 Clear 61 16 57 14 88 88 WNW 3 6 29.95 1014 10 16.0934 0 0
5:55 am 05:55 Sunny 61 16 54 12 77 77 N 5 7 29.95 1014 10 16.0934 0 0
6:15 am 06:15 Sunny 63 17 54 12 73 73 N 3 6 29.97 1015 10 16.0934 0 0
6:35 am 06:35 Sunny 63 17 54 12 73 73 NNW 8 13 29.98 1015 10 16.0934 0 0
6:55 am 06:55 Sunny 63 17 55 13 77 77 NNW 6 9 29.98 1015 10 16.0934 0 0
7:15 am 07:15 Sunny 64 18 55 13 73 73 NNW 8 13 29.97 1015 10 16.0934 0 0
7:35 am 07:35 Sunny 66 19 55 13 68 68 NNW 7 11 29.97 1015 10 16.0934 0 0
7:55 am 07:55 Sunny 68 20 55 13 64 64 NW 12 19 29.98 1015 10 16.0934 0 0
8:15 am 08:15 Sunny 68 20 55 13 64 64 N 7 11 29.99 1016 10 16.0934 0 0
8:35 am 08:35 Sunny 70 21 55 13 60 60 NNW 9 15 30 1016 10 16.0934 0 0
8:55 am 08:55 Sunny 70 21 55 13 60 60 NNW 8 13 30.01 1016 10 16.0934 0 0
9:15 am 09:15 Sunny 72 22 55 13 57 57 N 9 15 30.01 1016 10 16.0934 0 0
9:35 am 09:35 Sunny 72 22 55 13 57 57 N 9 15 30.01 1016 10 16.0934 0 0
9:55 am 09:55 Sunny 72 22 55 13 57 57 NNE 8 13 30.01 1016 10 16.0934 0 0
10:15 am 10:15 Sunny 72 22 55 13 57 57 N 8 13 30.01 1016 10 16.0934 0 0
10:35 am 10:35 Sunny 73 23 54 12 50 50 N 10 17 30.01 1016 10 16.0934 0 0
10:55 am 10:55 Sunny 73 23 54 12 50 50 NNE 12 19 30.01 1016 10 16.0934 0 0
11:15 am 11:15 Sunny 73 23 54 12 50 50 N 10 17 30 1016 10 16.0934 0 0
11:35 am 11:35 Partly Cloudy 75 24 54 12 47 47 N 9 15 30 1016 10 16.0934 0 0
11:55 am 11:55 Partly Cloudy 75 24 55 13 50 50 WNW 6 9 30 1016 10 16.0934 0 0
12:15 pm 12:15 Partly Cloudy 75 24 54 12 47 47 N 9 15 30 1016 10 16.0934 0 0
12:35 pm 12:35 Sunny 75 24 52 11 44 44 N 10 17 30.01 1016 10 16.0934 0 0
12:55 pm 12:55 Sunny 77 25 55 13 47 47 NNW 14 22 30 1016 10 16.0934 0 0
1:15 pm 13:15 Partly Cloudy 77 25 54 12 44 44 N 10 17 30 1016 10 16.0934 0 0
1:35 pm 13:35 Partly Cloudy 77 25 54 12 44 44 N 10 17 30 1016 10 16.0934 0 0
1:55 pm 13:55 Partly Cloudy 77 25 54 12 44 44 NNW 8 13 30 1016 10 16.0934 0 0
2:15 pm 14:15 Sunny 77 25 52 11 42 42 NNE 9 15 29.99 1016 10 16.0934 0 0
2:35 pm 14:35 Sunny 77 25 52 11 42 42 NNW 10 17 29.98 1015 10 16.0934 0 0
2:55 pm 14:55 Partly Cloudy 79 26 54 12 42 42 NNE 8 13 29.98 1015 10 16.0934 0 0
3:15 pm 15:15 Partly Cloudy 79 26 52 11 39 39 N 10 17 29.98 1015 10 16.0934 0 0
3:35 pm 15:35 Sunny 79 26 52 11 39 39 N 13 20 29.98 1015 10 16.0934 0 0
3:55 pm 15:55 Partly Cloudy 77 25 54 12 44 44 N 6 9 29.96 1015 10 16.0934 0 0
4:15 pm 16:15 Sunny 79 26 55 13 45 45 WNW 9 15 29.95 1014 10 16.0934 0 0
4:35 pm 16:35 Partly Cloudy 79 26 54 12 42 42 NNE 7 11 29.94 1014 10 16.0934 0 0
4:55 pm 16:55 Partly Cloudy 79 26 52 11 39 39 N 9 15 29.94 1014 10 16.0934 0 0
5:15 pm 17:15 Sunny 79 26 54 12 42 42 N 9 15 29.94 1014 10 16.0934 0 0
5:35 pm 17:35 Sunny 79 26 54 12 42 42 NNW 6 9 29.94 1014 10 16.0934 0 0
5:55 pm 17:55 Sunny 79 26 52 11 39 39 N 7 11 29.94 1014 10 16.0934 0 0
6:15 pm 18:15 Partly Cloudy 79 26 52 11 39 39 N 7 11 29.94 1014 10 16.0934 0 0
6:35 pm 18:35 Partly Cloudy 79 26 52 11 39 39 N 9 15 29.94 1014 10 16.0934 0 0
6:55 pm 18:55 Sunny 79 26 52 11 39 39 NNE 8 13 29.94 1014 10 16.0934 0 0
7:15 pm 19:15 Sunny 79 26 52 11 39 39 N 6 9 29.95 1014 10 16.0934 0 0
7:35 pm 19:35 Sunny 79 26 52 11 39 39 N 6 9 29.95 1014 10 16.0934 0 0
7:55 pm 19:55 Sunny 77 25 52 11 42 42 N 7 11 29.95 1014 10 16.0934 0 0
8:15 pm 20:15 Sunny 77 25 52 11 42 42 N 5 7 29.95 1014 10 16.0934 0 0
8:35 pm 20:35 Clear 75 24 54 12 47 47 N 3 6 29.97 1015 10 16.0934 0 0
8:55 pm 20:55 Clear 73 23 54 12 50 50 Calm 29.97 1015 10 16.0934 0 0
9:15 pm 21:15 Clear 72 22 59 15 65 65 Calm 29.97 1015 10 16.0934 0 0
9:35 pm 21:35 Clear 70 21 59 15 69 69 Calm 29.98 1015 10 16.0934 0 0
9:55 pm 21:55 Clear 70 21 55 13 60 60 Calm 29.99 1016 10 16.0934 0 0
10:15 pm 22:15 Clear 68 20 57 14 69 69 Calm 30 1016 10 16.0934 0 0
10:35 pm 22:35 Clear 64 18 61 16 88 88 Calm 30.01 1016 10 16.0934 0 0
10:55 pm 22:55 Clear 64 18 59 15 83 83 Calm 30.01 1016 10 16.0934 0 0
11:15 pm 23:15 Clear 63 17 59 15 88 88 Calm 30.03 1017 10 16.0934 0 0
11:35 pm 23:35 Clear 63 17 59 15 88 88 Calm 30.03 1017 10 16.0934 0 0
11:55 pm 23:55 Clear 63 17 59 15 88 88 Calm 30.03 1017 10 16.0934 0 0

Powered by AerisWeather